Dewpoint
73 72 72 72 72 72 71 71 72 70 68 67 67 65 63 62 59 58 58 58 60 64 68 66 68 69 70 71 71 70 70 71 73 70 70 69 70 70 70 70 70 70 70 69 69 70 70 71 71 71 71 72 72 73 72 72 72 72 72 72 72 72 72 71 70 70 70 71 71 71 72 72 72 72
72 73 72 72 72 72 71 71 71 71 69 69 68 67 66 65 62 61 60 60 61 63 66 68 67 68 70 71 71 71 72 73 73 72 71 70 70 70 69 68 68 69 69 68 68 68 69 69 69 70 70 70 71 71 71 71 71 71 71 71 71 71 71 71 70 70 70 70 70 71 71 72 72 72
72 72 71 71 71 71 71 71 71 71 71 70 69 68 68 67 65 64 62 62 64 66 65 67 69 69 70 71 71 72 72 73 73 73 72 72 72 72 72 70 69 69 68 68 68 67 67 67 67 67 68 69 69 69 70 70 71 71 71 71 70 70 70 69 68 69 69 69 70 70 71 71 71 71
72 71 71 71 71 71 71 71 71 70 71 70 69 69 70 68 67 67 64 64 66 67 68 68 69 70 70 71 71 72 72 73 74 72 73 73 74 73 73 72 71 70 69 69 68 67 66 65 66 67 68 68 69 69 70 70 70 69 68 69 68 67 67 66 67 68 68 69 69 69 70 70 70 71
72 72 71 71 71 71 71 71 71 71 70 71 70 70 70 69 68 67 66 65 67 67 68 69 69 70 71 71 69 70 72 72 72 73 73 73 73 73 73 73 72 71 70 69 68 68 67 66 66 67 68 68 69 69 69 69 67 66 67 66 64 65 65 65 66 66 66 67 67 68 69 69 70 70
73 72 71 71 71 71 71 71 71 71 70 70 70 70 70 69 69 69 68 67 65 67 67 67 68 69 71 70 69 70 71 71 72 72 73 74 74 74 74 74 74 71 70 69 69 68 67 66 66 66 66 67 68 68 68 67 64 65 64 63 63 64 64 63 64 65 65 65 65 66 67 68 69 70
72 72 72 72 71 71 71 71 71 71 70 70 70 70 70 70 70 70 70 68 67 67 68 67 68 67 69 69 71 71 71 72 72 73 73 74 74 74 74 74 74 72 70 69 68 67 67 66 66 66 67 67 66 66 64 63 62 62 61 61 62 62 62 61 62 63 63 63 64 64 65 66 67 68
72 72 72 72 72 71 71 71 71 71 70 70 70 69 69 69 70 70 70 70 69 67 67 68 67 68 68 69 70 71 72 72 73 73 73 73 73 74 74 74 74 73 70 69 68 68 68 68 68 67 66 65 63 62 62 61 61 60 60 60 60 60 60 59 59 60 61 61 61 62 63 64 65 65
72 72 72 72 72 71 71 71 71 71 70 71 70 70 70 70 70 70 70 70 70 69 69 69 67 67 68 69 70 70 71 72 72 72 72 73 73 73 73 74 74 72 71 71 71 70 70 70 69 67 65 63 62 62 61 61 60 59 58 57 57 59 59 58 58 59 59 59 59 61 62 63 63 63
73 72 72 72 72 71 71 71 71 71 71 71 70 70 70 70 69 69 69 69 69 69 70 69 69 67 69 70 69 70 71 71 71 72 72 72 71 71 72 73 73 74 74 75 75 73 72 71 69 67 65 63 62 62 61 61 60 58 57 55 56 58 57 57 57 57 58 58 58 58 60 60 61 63
73 73 72 72 72 72 72 71 71 71 71 71 71 71 71 70 69 70 70 69 69 69 69 69 69 70 69 69 70 69 70 70 71 70 70 70 69 70 71 72 73 73 74 74 73 73 73 71 71 65 62 62 62 62 61 60 59 58 56 56 56 56 56 57 56 55 56 58 58 58 58 58 59 61
73 73 73 73 73 72 72 72 72 71 71 71 71 71 71 70 70 70 70 69 69 69 69 69 69 67 68 68 68 69 69 70 68 68 69 70 71 70 70 72 72 73 73 74 75 73 72 72 71 68 66 64 63 62 62 62 61 59 57 57 59 58 56 56 56 56 56 56 57 57 58 58 58 58
72 72 73 73 73 73 75 75 74 73 73 71 71 71 70 70 70 70 69 69 68 69 68 69 69 69 69 69 69 70 67 67 69 69 68 69 70 70 70 71 72 73 73 73 74 74 74 73 72 70 68 66 64 63 63 61 61 59 57 57 58 58 57 56 56 55 55 56 56 56 57 57 57 57
72 72 72 72 75 76 76 74 71 70 71 73 73 71 71 71 70 70 69 69 69 69 69 69 69 68 69 69 68 68 68 68 68 68 67 67 68 69 70 70 71 72 73 73 72 72 73 72 70 69 66 65 64 63 62 60 58 58 57 58 58 58 57 56 56 55 55 55 56 55 55 56 57 57
72 72 72 72 73 75 77 75 72 70 69 69 70 71 74 74 71 70 70 70 69 68 69 69 68 69 69 70 69 69 70 68 68 68 67 68 68 67 67 68 70 73 74 72 71 71 71 69 67 67 66 65 63 62 61 60 59 58 58 58 58 57 57 57 57 56 55 56 56 56 55 55 56 56
71 71 71 72 72 72 72 73 73 73 71 68 68 68 69 70 71 72 71 70 70 68 69 69 69 69 69 70 69 69 66 67 66 67 66 67 67 67 67 66 68 71 73 72 70 69 69 67 65 64 66 65 63 62 61 60 58 57 57 57 57 57 57 57 57 57 56 57 57 56 56 56 56 56
71 71 71 71 71 71 74 75 73 73 73 70 67 67 68 68 68 66 66 68 71 71 70 69 69 69 69 69 69 68 67 66 66 66 66 66 67 68 68 69 69 71 72 70 68 67 68 65 63 63 64 65 64 63 61 60 59 58 57 57 56 56 57 56 56 56 57 57 55 54 54 55 55 55
71 71 71 71 71 71 71 72 72 72 72 72 72 71 71 71 72 70 67 66 67 69 70 70 70 70 70 70 69 70 68 67 68 67 68 67 67 68 69 70 71 72 70 69 69 67 65 66 63 62 63 64 63 62 61 60 58 57 56 56 56 55 56 56 56 56 55 56 55 54 53 53 53 54
71 71 71 71 71 71 71 71 72 71 71 71 71 71 71 71 71 71 71 70 70 70 70 71 71 71 71 70 70 70 70 70 70 69 69 69 69 70 71 71 71 71 69 69 68 65 64 65 62 62 62 63 61 61 61 60 58 57 56 56 55 55 55 56 56 55 55 55 55 54 53 53 53 54
71 71 71 71 71 71 71 72 68 71 72 71 71 70 70 70 70 70 71 67 68 71 70 71 71 71 72 69 71 71 71 70 70 71 71 70 70 69 68 70 69 69 70 68 66 64 64 64 62 61 62 61 59 60 61 61 59 57 56 56 55 54 54 54 55 55 55 55 54 54 53 52 52 54
70 71 71 71 71 71 71 69 65 65 72 71 71 70 70 70 70 70 70 67 64 64 64 64 65 65 65 64 64 63 63 68 69 70 69 70 70 69 67 68 67 68 69 67 67 65 63 62 61 61 61 61 59 59 60 61 58 56 55 55 54 53 53 53 54 54 55 55 54 53 53 52 53 56
71 71 74 74 71 71 71 66 64 63 68 70 70 70 70 69 69 70 70 70 70 63 62 62 63 63 64 64 64 64 63 63 69 70 70 70 69 69 68 68 67 68 67 67 67 62 61 62 60 60 59 59 60 60 59 60 58 57 55 54 54 53 53 53 53 54 54 54 54 53 53 52 54 59
71 71 73 73 72 70 69 64 63 62 66 69 70 70 69 69 69 69 69 69 70 70 70 71 69 69 69 69 68 69 67 66 69 70 71 71 70 70 69 69 68 69 67 67 66 61 60 60 59 58 53 52 55 58 60 61 59 56 56 55 54 53 54 53 53 52 53 53 53 53 52 52 53 57
70 71 71 70 64 63 63 62 61 60 60 68 69 69 69 68 68 69 69 70 70 71 72 72 72 72 72 71 70 70 70 70 70 69 70 70 71 70 70 69 69 69 67 66 65 62 61 59 58 58 54 51 51 56 58 58 58 56 54 54 53 54 55 55 55 54 53 52 52 52 52 52 53 56
70 70 71 71 67 61 60 59 59 57 57 62 70 70 69 69 69 70 69 70 75 73 72 72 72 71 71 71 71 70 70 70 70 70 69 70 71 71 70 69 69 70 66 66 65 62 60 59 56 56 56 54 54 56 56 55 57 55 56 53 53 53 54 54 55 55 54 53 52 52 52 52 53 54
70 70 71 71 68 62 60 59 57 56 56 57 67 70 63 63 64 68 70 70 70 72 72 71 71 71 71 71 72 72 71 72 71 71 71 70 70 71 71 71 70 67 64 66 63 62 59 57 57 56 54 55 55 55 55 54 55 55 54 53 53 53 54 53 54 55 54 54 54 53 52 52 53 53
70 70 71 72 70 62 59 57 56 56 56 59 63 60 60 61 63 68 70 70 71 70 71 70 70 70 70 70 70 70 71 72 70 68 70 72 71 71 71 71 70 68 66 67 66 61 59 56 58 57 56 54 55 54 53 52 51 54 52 52 53 52 53 53 54 55 55 54 54 53 52 52 53 53
70 70 71 70 64 60 56 55 56 57 57 63 58 56 59 61 65 68 70 70 71 71 70 70 70 70 70 70 70 70 70 71 68 67 68 68 68 68 68 69 68 67 67 67 65 61 60 59 59 57 57 57 54 51 50 52 55 53 51 53 53 52 53 54 53 56 55 54 53 53 54 54 54 55
70 66 63 62 60 60 57 56 56 56 56 55 57 57 58 65 67 68 69 70 71 70 70 70 70 71 71 71 71 71 71 69 68 68 67 67 67 67 67 67 68 66 65 64 62 61 60 59 59 58 56 54 54 54 53 50 51 51 53 53 50 51 53 52 53 53 55 54 52 53 53 54 54 54
65 63 61 60 60 60 61 64 65 66 66 58 58 59 62 64 66 68 68 69 69 70 71 70 70 71 71 71 71 70 69 68 67 66 66 66 65 65 65 65 64 64 64 63 61 61 60 59 59 59 57 55 54 54 52 50 48 49 53 50 51 53 54 51 52 53 54 53 52 53 52 53 54 54
67 66 65 65 62 64 63 65 66 65 66 65 64 63 65 65 66 67 68 69 69 69 70 70 71 71 72 70 69 69 69 69 67 65 65 64 64 65 65 64 63 62 63 64 64 62 61 60 60 59 56 55 55 52 51 51 49 49 50 50 52 47 50 51 52 52 53 53 51 51 51 52 53 55
67 68 67 65 68 67 67 67 67 67 68 68 67 67 66 66 67 68 70 71 70 70 71 71 71 70 69 70 70 69 69 69 67 66 65 64 65 65 64 62 61 61 62 62 61 61 64 60 59 58 56 55 52 52 52 50 49 49 49 51 53 51 52 51 50 52 52 51 50 50 50 50 52 53
66 66 68 69 68 68 68 67 68 68 67 67 67 67 67 67 67 67 68 69 70 70 70 70 71 71 70 70 70 69 68 68 67 66 65 64 64 64 63 61 61 60 60 60 59 58 57 57 60 57 56 55 54 54 52 50 51 50 49 50 50 50 50 49 50 51 52 49 50 49 49 50 51 53
65 66 67 67 68 68 68 68 68 68 68 68 67 67 65 67 68 68 68 69 69 70 70 70 70 70 70 70 69 69 68 67 66 64 63 63 64 63 62 61 61 60 60 59 59 57 56 55 55 55 55 55 55 54 53 51 49 50 50 49 49 49 50 50 50 50 50 50 49 50 49 50 50 52
65 66 66 67 68 68 69 69 69 69 68 68 68 68 68 67 67 67 68 69 68 69 69 70 70 70 70 70 69 69 67 66 66 64 63 63 63 62 63 62 61 60 59 58 57 57 56 55 55 54 53 52 52 53 56 53 51 50 49 49 49 49 50 50 52 51 50 48 48 49 49 48 50 50
65 66 66 67 68 68 68 68 69 69 69 68 68 68 67 67 67 67 68 68 69 69 70 70 69 70 69 69 69 68 67 66 65 63 63 63 63 63 63 61 61 60 59 57 56 57 56 55 55 54 53 51 48 48 48 55 55 52 50 48 47 48 49 49 49 49 48 48 49 48 47 48 49 51
66 66 66 67 68 68 68 69 69 69 70 69 68 67 67 67 67 67 67 67 69 69 70 70 70 70 69 69 68 67 66 65 64 62 62 63 63 63 62 62 61 59 58 57 56 57 57 55 55 53 51 50 47 47 49 49 51 53 52 51 49 49 49 49 49 49 48 48 48 48 49 48 49 50
66 67 67 67 68 69 69 70 69 69 69 69 68 67 67 67 68 67 67 67 67 67 67 68 69 68 69 67 67 66 66 65 64 61 61 63 62 62 61 61 60 58 58 57 56 56 57 56 55 54 50 49 48 47 47 48 50 52 52 52 51 49 50 50 48 47 48 47 48 47 46 47 49 49
66 67 67 68 68 69 69 69 69 69 69 69 68 68 67 67 68 67 66 66 66 66 67 68 68 68 67 67 66 66 65 63 62 61 62 62 63 62 60 60 59 58 57 57 56 55 56 55 55 54 51 49 48 48 48 48 50 52 51 50 51 50 49 49 49 47 47 47 47 48 48 49 50 52
66 67 68 68 68 69 69 69 69 69 68 69 69 69 68 67 67 67 67 66 66 67 67 67 67 66 67 67 65 65 64 63 63 62 62 62 62 61 60 59 58 58 57 57 57 56 55 55 55 54 52 50 50 51 51 50 50 50 51 50 49 51 51 50 49 48 48 48 47 48 48 46 46 46
65 66 67 68 68 68 68 69 68 68 68 68 68 66 68 68 68 68 68 67 66 67 67 67 67 67 66 65 64 63 62 62 62 62 62 62 61 60 59 58 56 56 57 57 57 56 56 55 56 56 56 54 54 53 51 49 48 49 50 52 49 48 49 51 50 49 48 48 48 48 47 48 47 46
65 66 67 68 68 68 68 68 68 68 68 68 68 68 68 68 68 65 67 66 67 67 67 67 67 66 65 64 63 62 62 62 61 60 61 61 60 59 58 56 55 55 56 56 57 57 57 57 58 59 55 55 52 50 49 50 49 50 49 49 51 49 48 49 50 51 51 50 48 48 47 47 46 45
65 66 66 67 67 67 67 67 68 68 68 68 68 67 66 67 67 67 67 67 67 66 66 65 65 64 63 62 61 62 61 61 60 59 60 60 59 58 57 56 55 55 55 55 56 57 56 56 56 57 56 54 54 52 51 51 50 50 50 49 50 50 49 50 50 50 51 52 52 50 48 46 44 40
65 65 66 66 67 67 67 67 68 68 68 68 68 68 67 67 67 67 67 67 66 66 65 63 63 63 63 63 61 61 60 60 60 59 59 59 59 58 57 56 55 55 55 55 54 55 55 56 57 57 56 55 54 53 52 52 51 52 51 50 50 49 50 50 50 50 51 51 51 51 51 51 51 50
65 66 66 66 66 66 67 67 67 67 67 67 67 67 66 66 65 66 66 66 66 65 63 62 62 62 61 61 60 59 59 58 58 58 58 58 57 57 56 56 55 55 55 55 55 54 55 54 55 56 55 55 54 54 54 53 52 51 51 50 51 51 50 50 49 49 49 49 50 51 51 51 51 51